Location: Caixon
(43.4106°N, 0.0273°E)
Time: 22:45:30
(UTC+00:00)

Cosmos 1570 Rocket - Pass Details

Date: 16 October 2021
Orbit: 764 x 787 km, 74.1° (Epoch: 07 December)

Event Time Altitude Azimuth Distance (km) Brightness Sun altitude
Exits shadow 03:42:33 64° 9° (N) 871 4.2 -28.3°
Drops below altitude 10° 03:47:03 10° 19° (NNE) 2,345 6.9 -27.5°
Sets 03:49:26 0° 20° (NNE) 3,274 7.7 -27.1°
